Regional Weather Roundup
Issued by NWS

Home | Current Version | Previous Version | Graphics & Text | Print | Product List | Glossary On
Versions: 1 2 3 4 5 6 7 8 9 10 11 12 13 14 15 16 17 18 19 20 21 22 23 24 25 26 27 28 29 30 31 32 33 34 35 36 37 38 39 40 41 42 43 44 45 46 47 48 49 50
000
ASUS43 KLSX 181907
RWRMO

WEATHER SUMMARY FOR MISSOURI
NATIONAL WEATHER SERVICE SPRINGFIELD MO
100 PM CST SUN FEB 18 2018

NOTE: "FAIR" INDICATES FEW OR NO CLOUDS BELOW 12,000 FEET WITH NO
       SIGNIFICANT WEATHER AND/OR OBSTRUCTIONS TO VISIBILITY.
       CURRENT SKY AND/OR WEATHER CONDITIONS ARE NOT AVAILABLE FOR
       CHILLICOTHE AND FARMINGTON.

MOZ001>031-035>038-043-044-053-054-182000-
...NORTHERN AND WESTERN MISSOURI...

CITY           SKY/WX    TMP DP  RH WIND       PRES   REMARKS
KANSAS CTY INT CLOUDY    53  24  32 S22G35    29.87F
KANSAS C DTWN  MOSUNNY   55  26  32 S20G29    29.90F
LEE`S SUMMIT   CLOUDY    53  27  36 S20G33    29.92F
ST JOSEPH      CLOUDY    55  24  30 S28G40    29.82F
CHILLICOTHE      N/A     52  28  39 S22G31    29.91F
KIRKSVILLE     CLOUDY    51  27  39 S23       29.95F

$$
MOZ066>068-077>081-088>096-101>105-182000-
...SOUTHWEST MISSOURI...

CITY           SKY/WX    TMP DP  RH WIND       PRES   REMARKS
SPRINGFIELD    PTSUNNY   50  33  52 S22G35    30.02F
JOPLIN         MOSUNNY   57  30  35 S17G25    29.97F
BRANSON        CLOUDY    52  32  46 SE13G23   30.08F

$$
MOZ032>034-039>042-045>050-055>058-069>072-182000-
...CENTRAL MISSOURI...

CITY           SKY/WX    TMP DP  RH WIND       PRES   REMARKS
COLUMBIA       CLOUDY    53  27  36 S23G33    30.02F
JEFFERSON CITY CLOUDY    53  26  35 S20G31    30.04F
ROLLA          CLOUDY    50  29  44 S22G32    30.07F
SEDALIA        CLOUDY    56  27  32 S25G33    29.99F
WHITEMAN AFB   PTSUNNY   54  28  37 S25       29.92F
WARRENSBURG    CLOUDY    54  27  35 S17G30    29.96F
OSAGE BEACH    CLOUDY    53  32  44 SE10G20   30.05F

$$
MOZ051-052-059>065-182000-
...EAST CENTRAL MISSOURI...

CITY           SKY/WX    TMP DP  RH WIND       PRES   REMARKS
ST LOUIS INTL  CLOUDY    50  26  39 S21       30.12F
SPIRIT OF STL  MOSUNNY   51  29  42 SE9G21    30.10F
ST CHARLES     CLOUDY    51  29  42 S17G29    30.11F

$$
MOZ072>076-082>087-097>100-106>115-182000-
...SOUTH CENTRAL AND SOUTHEAST MISSOURI...

CITY           SKY/WX    TMP DP  RH WIND       PRES   REMARKS
CAPE GIRARDEAU FAIR      50  39  66 S10       30.19F
FARMINGTON     FAIR      50  28  42 S16       30.14F
POPLAR BLUFF   FAIR      49  38  65 SE8       30.18F
WEST PLAINS    CLOUDY    48  34  58 SE12G20   30.12F

$$


USA.gov is the U.S. government's official web portal to all federal, state and local government web resources and services.